Lapse_Rate
4.0 5.1 5.4 4.2 4.0 3.7 3.1 2.9 2.3 2.2 2.3 3.0 3.9 2.6 2.4 3.6 4.1 3.0 2.9 3.0 2.2 1.5 0.6 1.3 0.4 0.0 -1.4 -1.0 -0.9 0.4 0.2 2.4 2.7 4.7 4.6 3.6 2.9 3.0 3.1 1.6 3.4 2.0 2.3
5.6 5.4 5.2 4.1 3.4 2.6 2.8 2.3 2.6 2.3 2.6 2.7 4.0 3.4 3.3 3.1 3.4 4.7 3.3 2.8 2.4 0.8 0.5 1.0 1.3 1.5 0.2 -0.6 -1.7 -1.3 1.4 2.8 5.7 5.9 5.5 4.5 3.5 3.2 2.8 2.1 2.8 2.5 2.4
5.9 5.0 4.9 4.3 3.8 3.1 2.9 2.5 3.0 3.0 2.8 3.3 3.1 3.8 4.1 4.3 4.4 4.4 4.8 3.3 2.4 1.5 1.0 0.9 1.8 2.0 2.6 2.1 1.5 1.3 1.9 3.5 3.7 4.8 5.2 5.9 5.3 4.7 2.2 2.6 3.3 2.3 2.7
5.4 5.0 4.8 4.7 4.7 4.0 3.5 3.1 3.1 3.4 3.4 3.6 3.7 4.1 4.2 4.7 4.9 5.3 5.1 4.5 4.1 3.4 3.8 3.5 2.8 2.7 2.4 1.9 2.4 1.4 1.8 2.3 3.0 3.5 4.6 4.1 3.9 3.5 3.2 2.6 2.7 2.7 1.9
5.2 5.1 5.3 5.1 5.3 4.6 4.1 4.2 4.8 4.4 4.4 4.6 4.5 4.9 4.8 5.7 6.2 5.6 5.5 5.4 5.2 5.4 4.5 4.1 3.9 3.8 4.0 3.9 2.5 2.1 2.1 1.6 1.6 1.3 1.1 2.9 2.7 1.8 2.4 3.3 3.0 2.4 2.6
4.7 5.6 5.9 5.6 5.5 5.4 5.5 6.8 6.4 5.8 4.2 3.6 3.9 5.3 5.3 5.9 7.1 8.3 6.7 5.5 4.9 4.3 4.4 4.5 4.9 4.9 4.9 6.5 6.0 5.4 2.6 2.4 1.6 2.1 3.0 3.2 4.1 4.0 3.9 3.9 3.3 2.6 2.1
5.6 6.4 6.5 6.4 6.3 6.4 6.9 6.8 6.5 4.9 4.2 4.1 3.8 4.3 5.3 5.8 6.5 6.5 7.4 6.4 5.8 5.4 5.5 5.4 5.6 5.7 5.1 5.2 5.5 5.1 5.3 5.8 4.7 5.0 4.7 4.2 3.9 3.8 3.7 4.0 4.2 3.6 4.2
5.6 6.8 7.2 7.1 6.9 6.7 6.6 7.2 6.9 5.9 4.7 3.5 3.2 3.5 4.1 6.2 6.1 5.7 5.6 6.4 6.3 6.1 6.2 6.7 5.9 5.1 4.9 4.6 4.5 4.4 4.5 4.5 4.6 5.0 4.6 5.2 5.8 5.5 5.3 5.5 5.4 4.7 3.6
6.1 6.8 6.8 6.7 6.8 6.7 6.7 7.1 6.7 5.4 4.6 4.2 3.6 3.5 3.5 5.7 7.2 5.6 4.8 5.5 6.0 6.3 6.4 7.8 7.1 6.0 5.8 4.8 4.0 4.0 4.0 4.3 4.9 4.8 5.0 5.2 5.0 5.2 5.0 4.2 2.8 3.6 3.9
6.5 5.7 6.0 5.4 5.0 4.7 4.8 6.0 5.9 5.3 5.0 5.1 4.4 3.9 4.6 4.8 9.1 7.1 5.5 5.2 4.7 5.8 6.2 6.3 6.6 5.9 5.9 5.0 4.3 4.2 3.3 3.6 3.0 2.8 3.3 3.5 3.4 3.6 4.1 4.2 4.2 4.4 6.8
5.6 5.1 4.8 4.9 4.6 4.5 4.5 4.5 4.5 4.9 4.5 3.9 3.9 4.0 4.3 5.1 7.2 8.5 7.0 5.7 5.9 6.0 6.0 5.7 6.5 5.9 4.8 4.6 4.2 4.0 4.1 3.6 2.7 2.6 2.4 2.1 2.3 2.8 3.3 3.9 4.6 4.8 5.2
5.0 4.7 4.3 4.2 4.6 4.3 3.6 3.9 3.9 3.8 3.9 3.9 3.6 3.9 4.2 5.1 6.7 6.4 6.8 5.8 5.4 4.8 5.0 5.1 5.0 5.2 4.6 4.2 3.8 4.2 3.7 2.6 2.1 1.9 1.6 1.4 1.4 1.7 2.0 2.4 3.4 4.0 4.3
4.8 3.7 4.3 4.7 4.5 4.2 3.4 3.6 3.5 3.8 4.1 4.7 4.7 4.4 4.7 4.9 4.5 4.7 4.9 4.8 4.5 3.6 4.3 4.3 3.9 3.4 3.0 2.1 2.7 2.7 1.8 1.2 1.3 1.1 1.4 2.0 2.5 2.2 2.7 2.7 2.9 3.2 3.2
3.1 4.2 5.7 5.6 5.1 4.8 4.8 5.5 5.3 5.0 5.4 5.9 5.7 5.5 5.5 5.0 4.4 3.7 3.4 2.8 3.1 2.4 1.9 1.6 1.1 2.5 1.2 1.2 1.4 1.8 2.1 2.0 2.3 2.2 2.2 2.3 2.0 2.1 2.2 2.2 1.9 1.9 1.3
6.1 6.8 6.6 6.2 6.4 6.5 7.0 7.2 6.5 6.8 7.8 7.0 7.8 6.9 6.2 5.7 7.4 7.4 5.9 4.7 4.3 3.2 0.9 0.3 0.2 0.2 0.4 0.8 1.0 1.3 1.4 1.4 1.3 1.3 1.4 1.3 1.7 2.2 2.2 2.8 2.4 2.3 2.2
6.4 6.6 6.6 6.7 6.7 7.4 7.8 7.4 8.2 6.9 6.2 7.0 8.0 7.7 6.1 8.7 8.1 5.3 4.7 4.0 3.6 2.1 0.3 0.1 0.3 0.8 1.0 1.1 1.0 0.9 1.4 1.5 1.7 1.5 1.2 1.4 1.5 1.8 1.8 1.8 2.6 2.5 2.3
5.7 6.2 6.1 6.4 6.4 6.2 6.2 5.9 4.8 5.7 5.9 5.2 5.2 4.9 5.6 5.4 4.5 3.9 3.3 2.8 2.4 1.1 -0.0 0.8 1.2 1.5 2.1 2.2 2.1 1.9 1.3 1.5 1.3 1.0 1.0 1.4 1.6 1.4 1.3 1.7 2.2 2.6 1.4
5.6 5.5 5.2 5.3 5.1 4.8 4.6 4.8 4.7 4.1 3.2 3.0 3.7 3.8 3.6 3.7 3.2 2.6 1.9 0.5 -1.0 -0.5 0.2 0.8 1.4 2.1 2.3 2.0 2.0 1.8 1.4 0.9 0.8 0.7 0.5 0.8 1.2 1.7 1.0 1.2 1.3 1.0 1.1
5.2 4.9 4.7 4.5 4.6 4.6 4.7 4.5 4.4 4.0 3.5 3.0 2.0 1.4 1.5 2.5 2.3 1.5 1.0 -0.6 0.1 0.8 1.4 1.7 2.2 2.3 2.0 2.2 2.0 1.8 1.4 0.7 0.4 0.2 0.4 0.4 0.4 0.2 -0.7 -0.5 -0.3 -0.3 0.1
4.4 4.2 4.1 4.1 3.9 3.5 3.6 3.5 3.2 2.9 2.6 2.4 2.0 1.5 0.9 0.3 -0.5 -0.4 0.6 0.2 0.4 1.0 1.1 1.4 1.9 1.7 1.5 1.7 1.3 0.4 0.1 0.6 0.2 -0.3 -1.0 -1.2 -1.1 -0.9 -0.9 -1.1 -0.9 -0.6 -0.2
4.1 3.9 3.2 3.4 3.3 3.2 2.8 2.4 2.7 2.4 2.3 2.2 2.3 2.0 1.2 1.0 0.7 0.4 0.3 -0.1 -0.1 0.4 0.4 0.9 1.0 1.0 1.8 1.6 0.7 0.4 0.9 0.2 0.0 -0.4 -1.0 -1.3 -1.5 -1.7 -1.1 -1.1 -1.1 -0.9 -0.7
3.4 3.3 3.1 2.8 2.6 1.9 2.1 2.2 1.9 1.8 1.7 1.4 1.3 1.5 0.1 0.1 -0.0 -0.3 -0.3 -0.5 -0.4 0.2 0.1 0.2 0.1 0.9 1.4 0.5 0.1 0.9 0.5 -0.1 -0.4 -0.7 -1.5 -1.7 -1.7 -1.6 -1.5 -1.6 -1.3 -1.0 -0.5
3.0 2.7 2.4 1.8 1.5 0.4 0.5 1.1 1.1 1.2 1.2 0.7 0.5 0.4 -0.1 -0.8 -1.0 -0.9 -1.0 -1.5 -1.2 -1.4 -1.3 -1.4 -1.5 -0.8 -0.6 -1.4 0.0 0.9 0.3 -0.3 -0.7 -0.7 -1.3 -1.8 -1.9 -1.6 -1.3 -1.2 -0.9 -0.7 0.2
2.1 1.8 1.4 0.4 0.0 -0.1 -0.4 -0.5 0.2 -0.3 0.2 -0.2 -0.8 -0.6 -0.9 -1.3 -1.8 -2.0 -2.3 -2.4 -2.4 -2.4 -2.1 -2.6 -2.5 -1.9 -2.5 -2.7 -0.7 -0.5 -0.2 -0.8 -1.1 -1.5 -1.0 -1.3 -1.4 -0.9 -0.5 -0.1 0.5 1.3 1.5
0.9 0.2 -0.1 -0.6 -0.9 -2.2 -2.4 -1.7 -2.5 -2.0 -1.3 -1.1 -1.5 -1.8 -1.5 -2.1 -2.2 -3.1 -3.1 -3.1 -3.2 -3.5 -3.3 -3.3 -3.4 -3.2 -3.8 -2.6 -1.8 -1.7 -2.2 -2.7 -2.3 -1.9 -1.3 -0.9 -0.1 0.8 1.7 2.7 3.9 4.7 4.0
0.5 0.0 -0.5 -0.5 -1.4 -2.1 -3.8 -5.7 -5.6 -2.8 -2.7 -2.0 -2.4 -2.9 -3.0 -3.1 -3.0 -3.9 -3.6 -3.8 -4.3 -4.1 -4.3 -4.3 -4.1 -4.0 -3.9 -2.7 -2.6 -2.6 -3.3 -3.3 -2.9 -2.4 -2.0 -1.1 -0.2 0.4 0.9 2.1 3.0 4.6 6.2
Wind_Speed
12 11 10 10 12 12 12 12 12 12 13 14 13 14 14 14 14 15 15 15 18 18 21 19 20 15 12 11 11 11 13 11 14 8 5 7 8 7 7 11 12 13 10
10 10 11 11 13 14 13 14 14 14 11 14 14 14 15 15 16 14 15 15 17 20 19 18 18 12 17 15 12 16 13 15 9 12 6 5 6 7 7 9 7 11 7
10 10 11 12 13 14 13 15 14 13 14 13 15 16 16 16 16 17 14 16 17 18 17 17 15 15 14 13 13 12 11 9 11 8 5 5 5 5 8 7 7 6 10
11 11 11 12 12 10 11 14 15 14 14 16 15 14 16 15 15 15 15 14 14 16 17 16 16 17 16 14 12 12 11 9 9 8 6 6 5 8 7 6 4 3 4
11 11 11 11 11 13 14 13 13 14 13 14 15 16 15 14 12 13 13 15 15 15 14 14 16 19 25 21 10 11 11 9 8 7 7 5 5 6 6 4 3 4 5
12 11 11 10 10 11 12 13 12 11 12 14 15 15 16 12 27 20 16 12 14 14 13 13 13 19 17 21 20 22 17 9 10 7 5 6 7 6 4 4 3 4 3
11 11 10 9 9 10 8 10 11 12 12 14 14 15 17 17 28 25 18 10 12 13 14 12 12 11 13 10 15 18 18 18 11 7 8 6 5 7 6 6 6 3 3
11 10 10 9 9 8 9 10 9 10 13 12 13 14 15 15 27 25 22 12 11 13 13 14 13 13 15 12 10 12 12 10 11 8 7 6 7 5 4 4 3 4 4
10 8 9 10 10 11 12 11 9 7 9 11 12 14 15 15 28 26 18 11 11 13 12 13 13 14 22 22 12 12 11 11 13 18 16 15 15 14 11 3 5 5 4
10 10 9 10 11 11 12 10 10 9 10 9 11 12 19 14 26 27 18 9 11 10 11 13 24 19 23 22 13 11 11 11 10 10 9 10 11 10 12 5 4 5 3
8 9 10 10 11 10 11 10 10 9 9 10 11 10 13 16 15 26 25 11 9 8 9 9 10 22 22 22 20 12 13 10 10 8 6 5 6 6 5 5 5 4 5
8 10 10 11 10 10 11 10 11 9 10 10 10 9 9 11 22 22 25 23 20 10 10 8 9 20 20 20 14 20 18 11 7 7 7 7 8 8 8 8 8 7 7
8 7 7 10 10 10 11 11 9 10 9 10 9 10 10 9 10 22 23 24 23 10 9 14 19 19 19 14 21 22 13 9 8 8 7 7 7 8 9 7 9 11 10
4 4 5 8 9 9 7 8 9 9 9 10 10 9 9 10 11 11 11 11 18 13 11 8 9 11 8 7 8 10 8 8 7 7 7 7 8 8 8 9 9 9 9
8 7 5 4 6 5 6 8 9 10 12 9 9 8 9 10 12 18 15 10 10 10 6 4 7 8 9 8 8 9 8 8 9 9 8 8 8 8 8 8 8 8 8
8 7 7 7 7 7 6 7 19 20 24 24 24 15 7 20 25 26 23 20 23 19 8 9 10 9 10 10 9 9 8 10 9 9 8 8 9 9 10 9 8 8 9
8 8 7 8 7 7 7 7 7 9 18 23 25 25 25 23 26 27 26 20 21 15 9 9 8 9 9 9 9 9 10 9 10 8 8 8 9 9 10 9 9 8 9
9 11 7 7 6 6 6 7 6 7 8 9 19 21 26 27 27 29 28 15 9 13 10 10 10 9 9 9 9 9 9 9 8 8 8 8 8 8 9 9 8 9 9
7 7 7 7 7 8 7 7 7 8 8 8 9 14 23 26 24 26 27 11 10 10 10 9 9 9 9 9 9 9 10 9 9 9 8 8 9 8 9 9 9 12 12
8 10 8 7 7 7 7 7 7 8 8 9 9 11 12 13 12 12 11 9 9 9 9 10 10 10 10 10 10 10 10 10 10 10 9 9 9 8 9 10 9 10 10
6 7 8 7 7 7 7 8 7 7 8 8 8 10 16 9 9 9 10 10 10 10 10 10 10 10 9 10 10 10 10 10 10 10 10 10 9 10 9 9 10 10 10
6 6 7 7 6 7 7 7 7 8 8 8 8 9 14 8 9 10 10 10 10 14 16 12 9 10 11 11 11 11 12 11 11 11 11 11 10 10 10 10 10 10 10
6 7 6 6 7 7 7 7 7 8 8 8 8 8 9 9 9 9 10 10 16 17 19 19 15 13 20 21 19 16 11 12 12 12 12 12 11 10 9 10 10 10 9
6 6 7 7 6 6 6 7 6 7 7 7 7 8 8 8 9 10 10 17 18 20 20 20 19 20 24 23 22 24 22 24 24 19 17 12 11 12 10 10 11 12 10
5 6 7 6 6 5 5 5 5 5 6 7 7 7 8 8 9 9 16 18 19 19 21 21 21 25 26 27 28 31 31 31 28 27 19 12 12 15 11 10 10 10 9
6 7 5 5 5 4 4 3 3 5 6 7 7 7 7 8 9 13 17 19 19 20 23 22 24 30 29 27 32 34 34 34 31 31 22 11 10 10 9 11 14 8 9
Wind_Direction
20 18 21 17 23 19 20 14 1 7 354 10 0 14 12 21 27 34 38 29 37 42 35 26 36 27 25 29 37 25 30 51 114 103 83 90 77 60 43 61 51 42 42
37 37 27 24 31 33 25 23 9 13 356 8 10 22 23 25 23 39 38 39 36 40 41 34 32 26 31 25 28 34 30 34 64 73 73 75 65 75 72 52 35 35 21
37 39 37 34 34 36 31 27 15 12 16 7 18 21 23 26 32 33 38 42 45 48 43 42 32 34 40 34 30 29 37 41 47 59 62 46 68 51 64 52 35 11 3
46 47 44 40 41 43 43 36 24 17 16 16 19 17 23 22 27 37 38 38 46 42 38 38 35 36 35 32 33 30 27 37 53 62 45 43 31 30 49 36 21 347 337
52 51 49 46 38 40 44 43 34 27 21 15 22 19 21 27 26 45 43 42 42 41 39 33 38 44 45 47 52 42 40 45 51 56 46 29 29 35 26 345 347 331 294
58 51 48 49 47 48 47 40 33 33 30 25 21 22 26 29 33 54 49 47 45 42 37 37 39 42 37 48 54 57 52 39 53 52 47 36 24 24 5 348 321 358 359
56 52 51 48 40 34 34 49 44 37 32 32 26 19 28 29 34 35 47 45 44 43 40 32 35 40 41 32 47 58 57 53 52 55 49 29 11 4 360 358 350 356 294
52 42 38 33 31 32 36 42 43 38 34 28 28 24 25 28 31 33 32 36 37 37 32 33 30 31 32 28 33 42 44 41 36 38 43 30 31 13 16 348 313 298 287
53 29 16 25 37 36 41 39 44 41 37 35 30 27 28 24 32 34 28 26 30 29 24 22 31 31 27 27 27 32 29 28 21 26 28 28 25 20 21 357 4 9 353
37 33 30 38 39 39 34 34 40 39 35 34 32 29 27 26 27 33 32 23 29 22 25 26 24 30 24 30 28 26 23 10 6 7 13 12 11 7 10 10 334 354 343
42 39 38 37 44 38 40 36 32 32 38 35 31 24 26 25 18 31 31 29 26 25 27 23 16 26 24 27 27 24 20 3 360 5 2 356 358 358 355 342 321 305 309
53 56 50 46 48 43 46 41 39 34 35 32 29 26 24 23 20 24 28 33 29 24 26 21 13 22 25 23 25 21 17 9 3 6 357 353 352 347 337 333 323 315 286
59 43 44 50 49 46 45 42 39 32 32 29 27 22 17 14 19 19 19 24 25 24 18 18 15 17 15 12 16 14 11 8 4 2 352 340 336 323 320 328 321 318 304
45 36 47 57 55 49 47 48 40 36 29 27 25 20 15 14 16 13 12 11 17 15 6 5 2 9 3 1 3 7 4 1 354 345 334 331 329 336 335 336 332 332 322
50 43 40 47 56 49 52 57 50 36 40 30 27 20 19 18 18 17 16 13 16 6 352 355 9 11 9 6 3 1 357 355 355 346 341 336 334 333 329 330 326 323 316
56 46 43 44 40 43 44 50 49 51 42 40 32 34 21 24 20 19 17 18 20 14 15 15 9 4 2 356 353 350 351 349 345 337 334 330 327 326 323 323 319 315 310
53 51 48 48 45 41 39 37 31 20 36 35 34 27 27 24 21 21 18 16 18 20 22 11 3 356 352 348 345 344 337 336 330 329 323 321 315 312 317 316 314 312 305
54 50 49 47 45 41 37 36 33 25 18 14 18 22 18 19 19 18 17 10 12 16 12 1 354 348 346 342 339 335 330 327 325 320 314 311 309 308 312 310 307 304 302
57 55 51 50 45 42 41 36 32 29 26 19 10 14 9 9 14 15 16 19 4 359 354 350 346 345 339 335 331 328 324 320 318 317 317 317 314 311 306 300 296 295 294
57 52 55 53 46 41 37 36 31 28 25 21 19 11 359 1 9 5 5 2 357 353 348 344 342 339 335 334 332 328 326 328 328 322 316 310 304 299 295 296 295 295 292
63 60 51 51 48 44 41 38 34 29 23 19 13 9 4 5 357 355 356 359 353 347 342 339 336 334 334 335 330 327 328 323 318 315 313 308 304 299 292 287 286 284 283
63 59 55 54 48 43 44 39 34 30 25 16 5 1 1 5 360 357 353 348 341 340 338 335 331 332 335 331 326 327 326 323 321 318 312 307 302 297 293 289 286 283 282
67 63 60 56 52 44 40 36 33 28 21 13 3 359 0 359 354 349 343 338 339 337 337 337 332 332 335 330 327 330 326 326 321 314 308 305 301 296 293 290 287 285 282
69 70 71 63 50 49 42 35 25 21 19 13 5 1 356 349 344 342 339 337 337 337 338 336 334 334 332 330 336 337 334 328 323 315 309 298 294 296 293 288 285 283 281
77 77 71 65 58 49 36 30 15 12 14 12 2 356 350 346 345 341 339 339 339 338 339 338 338 338 335 335 342 342 340 337 334 330 322 308 303 306 305 305 307 306 290
81 74 69 67 55 47 39 24 3 19 18 8 359 349 344 341 341 337 342 343 342 340 338 339 339 341 340 346 347 346 345 346 345 342 338 330 330 330 328 331 330 333 354